星链-32791 (STARLINK-32791)

导读 | 星芒AI

STARLINK-32791 是 SpaceX 星链计划中的一颗低轨通信卫星,属于第 6 批星链卫星群。该卫星于 2023 年发射,旨在为全球提供高速互联网服务。它运行在约 550 公里的轨道高度,具备先进的通信技术和自动避碰系统,以减少对天文观测和空间安全的影响。星链项目计划部署数万颗卫星,构建覆盖全球的宽带网络,尤其服务于偏远地区。STARLINK-32791 的运行有助于提升星链网络的稳定性和覆盖范围。

基本信息
目录编号:
62530
目录名称:
STARLINK-32791
国际标识:
2025-004V
轨道中心:
EARTH
卫星名称:
星链-32791
卫星全名:
星链-32791 (STARLINK-32791)
卫星状态:
在轨 (已飞行303 天)
发射日期:
2025-01-08 UTC
国别 :
美国 (US)
星等 :
--
轨道信息
数据来源 国际轨道数据 AOE轨道数据
星历时间 2025-11-07T01:23:52+0800
1天前
查看轨道信息
2025-11-02T21:00:00+0800
5天前
查看轨道信息
半长轴 6861.166km 6861.217km
偏心率 0.0001287 0.0003417
轨道倾角 43.001° 42.996°
近地点辐角 250.067° 263.473°
升交点赤经 194.234° 217.861°
平近点角 110.005° 104.709°
近地点 482.147km 480.737km
远地点 483.915km 485.427km
周期 94.266分钟 94.267分钟
每日圈数 15.27587 15.275699
详细信息
固有亮度:
5
最大亮度:
2.5
卫星平台:
Starlink V1.0
覆盖范围:
全球
运营商:
太空探索技术公司
运营商所在国:
美国
制造商(研发单位):
太空探索技术公司
制造商所在国:
美国
使用方式:
暂无
卫星简介
Starlink 计划是 SpaceX 推出的全球卫星互联网项目,通过发射低轨道卫星,为全球尤其是偏远地区提供高速、低延迟的互联网服务。自 2019 年起,Starlink 已部署数千颗卫星,旨在缩小全球数字鸿沟,推动互联网普及。该项目还为军事、航空等行业提供通信支持,带来广泛经济效益。
2D轨道图
3D轨道图
轨道高度分析图
轨道倾角分析图
轨道综合分析图
查看轨道综合分析图